| time (UTC) | temp C | wind direction | speed KPH | gust KPH | rain 1hr cm | rain 24hr cm | rain mn cm | humidity % | barometer mb |
| 20260906111008 | 20 | 88 | 0.0 | 0.0 | 0.00 | 0.00 | 0.00 | 99 | 1001.8 |
| 20260906110009 | 21 | 56 | 3.2 | 3.2 | 0.00 | 0.00 | 0.00 | 99 | 1001.7 |
| 20260906104004 | 21 | 81 | 0.0 | 0.0 | 0.00 | 0.00 | 0.00 | 99 | 1001.6 |
| 20260906103025 | 21 | 81 | 0.0 | 0.0 | 0.00 | 0.00 | 0.00 | 99 | 1001.6 |
| 20260906100019 | 21 | 81 | 0.0 | 0.0 | 0.00 | 0.00 | 0.00 | 99 | 1001.2 |
| 20260906095028 | 21 | 82 | 0.0 | 0.0 | 0.00 | 0.00 | 0.00 | 99 | 1001.2 |
| 20260906094010 | 21 | 81 | 0.0 | 0.0 | 0.00 | 0.00 | 0.00 | 99 | 1001.1 |
| 20260906093037 | 21 | 81 | 0.0 | 0.0 | 0.00 | 0.00 | 0.00 | 99 | 1001.0 |
| 20260906092018 | 21 | 79 | 0.0 | 0.0 | 0.00 | 0.00 | 0.00 | 99 | 1001.0 |
| 20260906091034 | 21 | 81 | 0.0 | 0.0 | 0.00 | 0.00 | 0.00 | 99 | 1001.2 |
| 20260906090028 | 21 | 92 | 0.0 | 0.0 | 0.00 | 0.00 | 0.00 | 99 | 1001.2 |
| 20260906085041 | 21 | 98 | 0.0 | 0.0 | 0.00 | 0.00 | 0.00 | 99 | 1001.2 |
| 20260906084047 | 21 | 109 | 1.6 | 3.2 | 0.00 | 0.00 | 0.00 | 99 | 1001.2 |
| 20260906083029 | 21 | 108 | 0.0 | 0.0 | 0.00 | 0.00 | 0.00 | 99 | 1001.3 |
| 20260906082026 | 21 | 109 | 0.0 | 0.0 | 0.00 | 0.00 | 0.00 | 99 | 1001.2 |
| 20260906080038 | 21 | 95 | 0.0 | 0.0 | 0.00 | 0.00 | 0.00 | 99 | 1001.1 |
| 20260906075004 | 21 | 78 | 0.0 | 0.0 | 0.00 | 0.00 | 0.00 | 99 | 1001.0 |
| 20260906073021 | 21 | 72 | 0.0 | 0.0 | 0.00 | 0.00 | 0.00 | 99 | 1000.9 |
| 20260906072037 | 21 | 72 | 0.0 | 0.0 | 0.00 | 0.00 | 0.00 | 99 | 1000.8 |
| 20260906071039 | 21 | 72 | 0.0 | 0.0 | 0.00 | 0.00 | 0.00 | 99 | 1000.8 |
| 20260906064006 | 21 | 72 | 0.0 | 0.0 | 0.00 | 0.00 | 0.00 | 99 | 1001.0 |
| 20260906063009 | 21 | 73 | 0.0 | 0.0 | 0.00 | 0.00 | 0.00 | 99 | 1001.1 |
| 20260906062019 | 21 | 83 | 0.0 | 0.0 | 0.00 | 0.00 | 0.00 | 99 | 1001.1 |
| 20260906061016 | 21 | 94 | 0.0 | 0.0 | 0.00 | 0.00 | 0.00 | 99 | 1001.2 |
| 20260906060043 | 21 | 81 | 0.0 | 0.0 | 0.00 | 0.00 | 0.00 | 99 | 1001.0 |
| 20260906055041 | 21 | 74 | 0.0 | 0.0 | 0.00 | 0.00 | 0.00 | 99 | 1001.4 |
| 20260906054022 | 21 | 79 | 0.0 | 0.0 | 0.00 | 0.00 | 0.00 | 99 | 1001.3 |
| 20260906053038 | 21 | 60 | 1.6 | 3.2 | 0.00 | 0.00 | 0.00 | 99 | 1001.2 |
| 20260906052023 | 21 | 60 | 0.0 | 0.0 | 0.00 | 0.00 | 0.00 | 99 | 1001.4 |
| 20260906051018 | 21 | 60 | 0.0 | 0.0 | 0.00 | 0.00 | 0.00 | 99 | 1001.0 |
| 20260906050006 | 21 | 60 | 0.0 | 0.0 | 0.00 | 0.00 | 0.00 | 99 | 1001.1 |
| 20260906045013 | 21 | 60 | 0.0 | 0.0 | 0.00 | 0.00 | 0.00 | 99 | 1001.4 |
| 20260906043036 | 22 | 60 | 0.0 | 0.0 | 0.00 | 0.00 | 0.00 | 99 | 1001.1 |
| 20260906042006 | 22 | 60 | 0.0 | 0.0 | 0.00 | 0.00 | 0.00 | 99 | 1001.1 |
| 20260906041018 | 22 | 75 | 0.0 | 0.0 | 0.00 | 0.00 | 0.00 | 99 | 1001.1 |
| 20260906040022 | 22 | 75 | 0.0 | 0.0 | 0.00 | 0.00 | 0.03 | 99 | 1000.9 |
| 20260906035017 | 22 | 69 | 0.0 | 0.0 | 0.00 | 0.00 | 0.03 | 99 | 1001.0 |
| 20260906034014 | 22 | 77 | 0.0 | 0.0 | 0.00 | 0.00 | 0.03 | 99 | 1001.0 |
| 20260906033030 | 22 | 81 | 0.0 | 0.0 | 0.00 | 0.00 | 0.03 | 99 | 1001.1 |
| 20260906032004 | 22 | 83 | 0.0 | 0.0 | 0.00 | 0.00 | 0.03 | 99 | 1001.2 |
| 20260906031022 | 22 | 86 | 0.0 | 0.0 | 0.00 | 0.00 | 0.03 | 99 | 1001.5 |
| 20260906030005 | 22 | 83 | 0.0 | 0.0 | 0.00 | 0.00 | 0.03 | 99 | 1001.4 |
| 20260906025029 | 22 | 60 | 0.0 | 0.0 | 0.00 | 0.00 | 0.03 | 99 | 1001.6 |
| 20260906024023 | 22 | 71 | 0.0 | 0.0 | 0.00 | 0.00 | 0.03 | 99 | 1001.6 |
| 20260906023012 | 22 | 73 | 0.0 | 0.0 | 0.00 | 0.00 | 0.03 | 99 | 1001.7 |
| 20260906022036 | 22 | 73 | 0.0 | 0.0 | 0.00 | 0.00 | 0.03 | 99 | 1001.9 |
| 20260906021026 | 22 | 74 | 0.0 | 0.0 | 0.00 | 0.00 | 0.03 | 99 | 1001.6 |
| 20260906020045 | 22 | 74 | 0.0 | 0.0 | 0.00 | 0.00 | 0.03 | 99 | 1001.3 |
| 20260906015012 | 22 | 74 | 0.0 | 0.0 | 0.00 | 0.00 | 0.03 | 99 | 1001.4 |
| 20260906014042 | 23 | 64 | 0.0 | 0.0 | 0.00 | 0.00 | 0.03 | 99 | 1001.3 |
| 20260906013045 | 23 | 64 | 0.0 | 0.0 | 0.00 | 0.00 | 0.03 | 99 | 1000.8 |
| 20260906012036 | 23 | 64 | 0.0 | 0.0 | 0.00 | 0.00 | 0.03 | 98 | 1000.6 |
| 20260906011040 | 23 | 64 | 0.0 | 0.0 | 0.00 | 0.00 | 0.03 | 97 | 1000.7 |
| 20260906010032 | 23 | 64 | 0.0 | 0.0 | 0.00 | 0.00 | 0.03 | 96 | 1000.4 |
| 20260906005034 | 23 | 64 | 0.0 | 0.0 | 0.00 | 0.00 | 0.03 | 95 | 1000.6 |
| 20260906004007 | 23 | 65 | 0.0 | 0.0 | 0.00 | 0.00 | 0.03 | 94 | 1000.5 |
| 20260906003007 | 23 | 64 | 0.0 | 0.0 | 0.00 | 0.00 | 0.03 | 92 | 1000.5 |
| 20260906002019 | 24 | 64 | 0.0 | 0.0 | 0.00 | 0.00 | 0.03 | 92 | 1000.4 |
| 20260906001045 | 24 | 65 | 0.0 | 0.0 | 0.00 | 0.00 | 0.03 | 90 | 1000.4 |
| 20260906000009 | 25 | 65 | 0.0 | 0.0 | 0.00 | 0.00 | 0.03 | 88 | 1000.4 |
| 20260905235016 | 25 | 65 | 0.0 | 0.0 | 0.00 | 0.00 | 0.03 | 86 | 1000.9 |
| 20260905234043 | 25 | 65 | 0.0 | 0.0 | 0.00 | 0.00 | 0.03 | 85 | 1000.8 |
| 20260905233025 | 26 | 64 | 0.0 | 0.0 | 0.00 | 0.00 | 0.03 | 84 | 1000.7 |
| 20260905231017 | 26 | 39 | 0.0 | 0.0 | 0.00 | 0.00 | 0.03 | 84 | 1001.0 |
| 20260905225013 | 26 | 81 | 0.0 | 0.0 | 0.00 | 0.00 | 0.03 | 83 | 1000.9 |
| 20260905224011 | 26 | 81 | 0.0 | 0.0 | 0.00 | 0.00 | 0.03 | 82 | 1000.9 |
| 20260905223045 | 26 | 62 | 3.2 | 3.2 | 0.00 | 0.00 | 0.03 | 81 | 1000.9 |
| 20260905222011 | 26 | 115 | 0.0 | 0.0 | 0.00 | 0.00 | 0.03 | 80 | 1000.7 |
| 20260905221015 | 27 | 95 | 1.6 | 3.2 | 0.00 | 0.00 | 0.03 | 79 | 1000.8 |
| 20260905215001 | 27 | 73 | 0.0 | 0.0 | 0.00 | 0.00 | 0.03 | 79 | 1000.7 |
| 20260905210040 | 30 | 61 | 1.6 | 3.2 | 0.00 | 0.00 | 0.03 | 72 | 1000.3 |
| 20260905205018 | 30 | 54 | 3.2 | 4.8 | 0.00 | 0.00 | 0.03 | 74 | 1000.2 |
| 20260905204016 | 28 | 253 | 6.4 | 8.0 | 0.00 | 0.00 | 0.03 | 74 | 1000.4 |
| 20260905203006 | 28 | 75 | 0.0 | 0.0 | 0.00 | 0.00 | 0.03 | 76 | 1000.3 |
| 20260905201015 | 29 | 65 | 1.6 | 3.2 | 0.00 | 0.00 | 0.03 | 72 | 1000.4 |
| 20260905200008 | 30 | 95 | 0.0 | 0.0 | 0.00 | 0.00 | 0.03 | 70 | 1000.6 |
| 20260905195005 | 29 | 105 | 0.0 | 0.0 | 0.00 | 0.00 | 0.03 | 70 | 1000.7 |
| 20260905194031 | 30 | 69 | 0.0 | 0.0 | 0.00 | 0.00 | 0.03 | 68 | 1000.6 |
| 20260905193024 | 30 | 47 | 1.6 | 3.2 | 0.00 | 0.00 | 0.03 | 70 | 1000.8 |
| 20260905192040 | 30 | 67 | 1.6 | 3.2 | 0.00 | 0.00 | 0.03 | 72 | 1001.1 |
| 20260905190020 | 30 | 84 | 0.0 | 0.0 | 0.00 | 0.00 | 0.03 | 67 | 1001.3 |
| 20260905185018 | 30 | 97 | 1.6 | 3.2 | 0.00 | 0.00 | 0.03 | 69 | 1001.3 |
| 20260905184026 | 30 | 70 | 1.6 | 3.2 | 0.00 | 0.00 | 0.03 | 74 | 1001.7 |
| 20260905183025 | 28 | 105 | 0.0 | 0.0 | 0.00 | 0.00 | 0.03 | 76 | 1001.7 |
| 20260905181041 | 28 | 128 | 3.2 | 4.8 | 0.00 | 0.00 | 0.03 | 73 | 1002.0 |
| 20260905180029 | 28 | 124 | 4.8 | 6.4 | 0.00 | 0.00 | 0.03 | 74 | 1002.1 |
| 20260905175039 | 27 | 104 | 0.0 | 0.0 | 0.00 | 0.00 | 0.03 | 78 | 1002.3 |
| 20260905174027 | 27 | 198 | 3.2 | 4.8 | 0.00 | 0.00 | 0.03 | 76 | 1002.1 |
| 20260905173043 | 27 | 184 | 3.2 | 4.8 | 0.00 | 0.00 | 0.03 | 78 | 1002.3 |
| 20260905172028 | 26 | 78 | 3.2 | 4.8 | 0.00 | 0.00 | 0.03 | 82 | 1002.3 |
| 20260905171008 | 26 | 86 | 0.0 | 0.0 | 0.00 | 0.00 | 0.03 | 85 | 1002.4 |
| 20260905170011 | 26 | 88 | 0.0 | 0.0 | 0.00 | 0.00 | 0.03 | 85 | 1002.4 |
| 20260905165026 | 26 | 127 | 3.2 | 4.8 | 0.00 | 0.00 | 0.03 | 83 | 1002.6 |
| 20260905161032 | 25 | 116 | 1.6 | 3.2 | 0.00 | 0.00 | 0.03 | 90 | 1003.3 |
| 20260905155038 | 24 | 101 | 0.0 | 0.0 | 0.00 | 0.00 | 0.03 | 94 | 1003.0 |
| 20260905154015 | 24 | 99 | 0.0 | 0.0 | 0.00 | 0.00 | 0.03 | 93 | 1002.7 |
| 20260905153024 | 24 | 74 | 0.0 | 0.0 | 0.00 | 0.00 | 0.03 | 94 | 1003.3 |
| 20260905152012 | 24 | 106 | 1.6 | 3.2 | 0.00 | 0.00 | 0.03 | 93 | 1002.7 |
| 20260905151018 | 24 | 130 | 1.6 | 3.2 | 0.00 | 0.00 | 0.03 | 91 | 1002.3 |
| 20260905150029 | 24 | 121 | 3.2 | 4.8 | 0.00 | 0.00 | 0.03 | 93 | 1001.9 |
| 20260905145018 | 23 | 112 | 1.6 | 3.2 | 0.00 | 0.00 | 0.03 | 94 | 1002.2 |
| 20260905144021 | 22 | 115 | 1.6 | 3.2 | 0.00 | 0.00 | 0.03 | 98 | 1002.0 |
| 20260905143038 | 22 | 81 | 0.0 | 0.0 | 0.00 | 0.00 | 0.03 | 99 | 1002.5 |
| 20260905142014 | 22 | 110 | 0.0 | 0.0 | 0.00 | 0.00 | 0.03 | 99 | 1002.8 |
| 20260905141032 | 22 | 174 | 1.6 | 3.2 | 0.00 | 0.00 | 0.03 | 99 | 1003.3 |
| 20260905135039 | 22 | 101 | 1.6 | 3.2 | 0.00 | 0.00 | 0.03 | 99 | 1003.6 |
| 20260905134011 | 21 | 81 | 0.0 | 0.0 | 0.00 | 0.00 | 0.03 | 99 | 1003.7 |
| 20260905133003 | 21 | 90 | 0.0 | 0.0 | 0.13 | 0.00 | 0.03 | 99 | 1003.7 |
| 20260905132034 | 21 | 122 | 0.0 | 0.0 | 0.00 | 0.00 | 0.00 | 99 | 1004.0 |
| 20260905131017 | 22 | 109 | 1.6 | 3.2 | 0.00 | 0.00 | 0.00 | 99 | 1004.2 |
| 20260905130015 | 21 | 88 | 0.0 | 0.0 | 0.00 | 0.00 | 0.00 | 99 | 1003.8 |
| 20260905125004 | 21 | 87 | 0.0 | 0.0 | 0.00 | 0.00 | 0.00 | 99 | 1003.7 |
| 20260905124038 | 21 | 103 | 0.0 | 0.0 | 0.00 | 0.00 | 0.00 | 99 | 1004.2 |
| 20260905123004 | 22 | 117 | 3.2 | 3.2 | 0.00 | 0.00 | 0.00 | 99 | 1003.8 |
| 20260905122043 | 22 | 122 | 1.6 | 3.2 | 0.00 | 0.00 | 0.00 | 99 | 1004.1 |
| 20260905121007 | 22 | 85 | 0.0 | 0.0 | 0.00 | 0.00 | 0.00 | 99 | 1003.0 |
| 20260905120022 | 22 | 84 | 0.0 | 0.0 | 0.00 | 0.00 | 0.00 | 99 | 1002.5 |
| 20260905115020 | 22 | 54 | 1.6 | 3.2 | 0.00 | 0.00 | 0.00 | 99 | 1002.4 |
| 20260905113014 | 21 | 89 | 0.0 | 0.0 | 0.00 | 0.00 | 0.00 | 99 | 1001.2 |
| 20260905112034 | 21 | 93 | 0.0 | 0.0 | 0.00 | 0.00 | 0.00 | 99 | 1001.4 |